Westhampton Beach, NY

6:05 AM EDT on August 27, 2016 (GMT -0400)
The Gabreski

Weather History for KFOK - May, 2013

Change the Weather History Date:

Sunday, May 26, 2013

  Actual Average Record
Temperature  
Mean Temperature 52 °F -  
Max Temperature 66 °F 66 °F 87 °F (2007)
Min Temperature 37 °F 47 °F 37 °F (2013)
Degree Days  
Heating Degree Days 14    
Growing Degree Days 2 (Base 50)    
Moisture  
Dew Point 37 °F    
Average Humidity 56    
Maximum Humidity 86    
Minimum Humidity 33    
Precipitation  
Precipitation 0.01 in - - ()
Sea Level Pressure  
Sea Level Pressure 30.00 in    
Wind  
Wind Speed 15 mph (WNW)    
Max Wind Speed 24 mph    
Max Gust Speed 36 mph    
Visibility 10 miles    
Events      
Averages and records for this station are not official NWS values.
T = Trace of Precipitation, MM = Missing Value Source: NWS Daily Summary

Daily Weather History Graph

Daily Weather History Graph

Search for Another Location

Airport or City:

Trip Planner

Search our weather history database for the weather conditions in past years. The results will help you decide how hot, cold, wet, or windy it might be!

Date:

Astronomy

May. 26, 2013 Rise Set
Actual Time 5:24 AM EDT 8:11 PM EDT
Civil Twilight 4:51 AM EDT 8:43 PM EDT
Nautical Twilight 4:11 AM EDT 9:24 PM EDT
Astronomical Twilight 3:25 AM EDT 10:11 PM EDT
Moon 9:56 PM EDT (5/26) 6:50 AM EDT (5/26)
Length of Visible Light 15h 51m
Length of Day
14h 47m
Waning Gibbous, 97% of the Moon is Illuminated
May 26
Waning Gibbous
May 31
Last Quarter
Jun 8
New
Jun 16
First Quarter
Jun 23
Full

Hourly Weather History & Observations

Time (EDT) Temp. Dew Point Humidity Pressure Visibility Wind Dir Wind Speed Gust Speed Precip Events Conditions
12:53 AM 46.9 °F 39.0 °F 74% 29.91 in 10.0 mi WNW 15.0 mph 21.9 mph N/A   Overcast
1:53 AM 46.9 °F 37.9 °F 71% 29.91 in 10.0 mi West 13.8 mph 20.7 mph N/A   Overcast
2:53 AM 46.9 °F 37.0 °F 68% 29.90 in 10.0 mi West 12.7 mph 21.9 mph N/A   Mostly Cloudy
3:53 AM 46.9 °F 37.9 °F 71% 29.90 in 10.0 mi West 11.5 mph - N/A   Overcast
4:53 AM 48.0 °F 37.9 °F 68% 29.91 in 10.0 mi West 15.0 mph 23.0 mph N/A   Overcast
5:53 AM 48.9 °F 37.0 °F 64% 29.94 in 10.0 mi West 10.4 mph - N/A   Partly Cloudy
6:53 AM 48.9 °F 39.0 °F 69% 29.95 in 10.0 mi West 10.4 mph - N/A   Overcast
7:53 AM 53.1 °F 39.9 °F 61% 29.95 in 9.0 mi West 17.3 mph 25.3 mph N/A   Scattered Clouds
8:00 AM 53.6 °F 39.2 °F 58% 29.95 in 10.0 mi West 17.3 mph 24.2 mph N/A   Mostly Cloudy
8:35 AM 53.6 °F 37.4 °F 54% 29.95 in 10.0 mi WNW 24.2 mph 29.9 mph N/A   Mostly Cloudy
8:49 AM 53.6 °F 37.4 °F 54% 29.95 in 10.0 mi West 23.0 mph 31.1 mph N/A   Scattered Clouds
8:53 AM 55.0 °F 37.0 °F 51% 29.96 in 10.0 mi West 19.6 mph 31.1 mph N/A   Scattered Clouds
9:53 AM 57.9 °F 37.0 °F 46% 29.95 in 10.0 mi WNW 19.6 mph 32.2 mph 0.01 in   Scattered Clouds
10:53 AM 60.1 °F 37.9 °F 44% 29.96 in 10.0 mi WNW 17.3 mph 35.7 mph N/A   Scattered Clouds
11:53 AM 60.1 °F 37.9 °F 44% 29.97 in 10.0 mi West 21.9 mph 28.8 mph N/A   Partly Cloudy
12:53 PM 61.0 °F 37.0 °F 41% 29.98 in 10.0 mi WNW 21.9 mph 29.9 mph N/A   Partly Cloudy
1:53 PM 61.0 °F 37.0 °F 41% 29.99 in 10.0 mi NW 15.0 mph 28.8 mph N/A   Overcast
2:53 PM 64.0 °F 36.0 °F 35% 29.99 in 10.0 mi NW 23.0 mph 32.2 mph N/A   Mostly Cloudy
3:53 PM 63.0 °F 36.0 °F 37% 30.00 in 10.0 mi WNW 21.9 mph 33.4 mph N/A   Overcast
4:53 PM 64.9 °F 35.1 °F 33% 30.02 in 10.0 mi NW 24.2 mph 35.7 mph N/A   Mostly Cloudy
5:53 PM 63.0 °F 36.0 °F 37% 30.04 in 10.0 mi NW 17.3 mph 34.5 mph N/A   Partly Cloudy
6:53 PM 60.1 °F 37.0 °F 42% 30.09 in 10.0 mi NW 16.1 mph 25.3 mph N/A   Partly Cloudy
7:53 PM 57.9 °F 36.0 °F 44% 30.12 in 10.0 mi NNW 8.1 mph - N/A   Clear
8:53 PM 50.0 °F 37.0 °F 61% 30.14 in 10.0 mi Calm Calm - N/A   Clear
9:53 PM 44.1 °F 37.0 °F 76% 30.18 in 10.0 mi Calm Calm - N/A   Partly Cloudy
10:53 PM 39.9 °F 35.1 °F 83% 30.19 in 10.0 mi Calm Calm - N/A   Clear
11:53 PM 37.9 °F 34.0 °F 86% 30.20 in 10.0 mi Calm Calm - N/A   Clear